Volver al catálogo

METEOR 2-17 DEB

ActivoPO
NORAD 38330·DEBRIS·🇷🇺 Russia

Lanzado Jan 30, 1988 desde Plesetsk Cosmodrome

Loading…

Próximos Pases (próximas 24 horas)

TLE

ActualizadoSource: Space-Track

Época: Sep 12, 2026, 00:37 UTC

1 38330U 88005AR  26255.02622131  .00001521  00000-0  90470-3 0  9997
2 38330  82.5154 153.4476 0020092 285.4131  74.4822 14.06777017544326

Sigue METEOR 2-17 DEB en tiempo real con AllMySat

Download on the App Store